Tracking 29892 objects as of 21-Nov-2024
HD Live streaming from Space Station
objects crossing your sky now

CZ-3B DEB

Track CZ-3B DEB now!


NORAD ID: 40161
Int'l Code: 2010-042N
Perigee: 531.1 km
Apogee: 40,016.3 km
Inclination: 27.1 °
Period: 721.4 minutes
Semi major axis: 26644 km
RCS: Unknown
Launch date: September 4, 2010
Source: People's Republic of China (PRC)
Launch site: Xichang Space Center, China (XSC)

Note: This is SATELLITE DEBRIS
Your satellite tracking list
Your tracking list is empty




NASA's NSSDC Master Catalog

Two Line Element Set (TLE):
1 40161U 10042N   24318.00559071  .00000751  00000-0  11117-1 0  9999
2 40161  27.0864 169.9655 7409566  96.0243   2.3027  1.99611765 79918
Source of the keplerian elements: AFSPC